This is the latest recevied weather packets stored in our database for station/object KB1QVF. If no packets are shown the sender has not sent any weather packets the latest 10 day(s).
| Time | Temp. | Humidity | Pressure | Rain* | Wind** | Luminosity | Snow |
|---|---|---|---|---|---|---|---|
| 1777810902 | 6.67° C | 65% | 1009.1 hPa | 0 mm | - | 328 W/m² | - |
| 1777810598 | 6.67° C | 66% | 1009 hPa | 0 mm | - | 329 W/m² | - |
| 1777810296 | 6.11° C | 66% | 1009.1 hPa | 0 mm | - | 246 W/m² | - |
| 1777809991 | 6.11° C | 66% | 1009 hPa | 0 mm | - | 182 W/m² | - |
| 1777809690 | 6.11° C | 66% | 1009.1 hPa | 0 mm | - | 86 W/m² | - |
| 1777809387 | 5.56° C | 67% | 1009.3 hPa | 0 mm | - | 64 W/m² | - |
| 1777809084 | 5.56° C | 67% | 1009.1 hPa | 0 mm | - | 50 W/m² | - |
| 1777808782 | 5.56° C | 68% | 1009.2 hPa | 0 mm | - | 61 W/m² | - |
| 1777808478 | 5.56° C | 67% | 1009 hPa | 0 mm | - | 55 W/m² | - |
| 1777808176 | 5.56° C | 67% | 1009.2 hPa | 0 mm | - | 58 W/m² | - |
| 1777807874 | 5° C | 68% | 1009.1 hPa | 0 mm | - | 52 W/m² | - |
| 1777807572 | 5.56° C | 67% | 1009.2 hPa | 0 mm | - | 69 W/m² | - |
| 1777807269 | 5° C | 68% | 1009.5 hPa | 0 mm | - | 95 W/m² | - |
| 1777806965 | 5° C | 69% | 1009.4 hPa | 0 mm | - | 85 W/m² | - |
| 1777806661 | 5° C | 68% | 1009.4 hPa | 0 mm | - | 43 W/m² | - |
| 1777806357 | 4.44° C | 69% | 1009.3 hPa | 0 mm | - | 66 W/m² | - |
| 1777806054 | 4.44° C | 70% | 1009.4 hPa | 0 mm | - | 58 W/m² | - |
| 1777805750 | 3.89° C | 70% | 1009.4 hPa | 0 mm | - | 51 W/m² | - |
| 1777805448 | 3.89° C | 72% | 1009.3 hPa | 0 mm | - | 46 W/m² | - |
| 1777805146 | 3.89° C | 71% | 1009.2 hPa | 0 mm | - | 38 W/m² | - |
| 1777804843 | 3.33° C | 71% | 1009.5 hPa | 0 mm | - | 27 W/m² | - |
| 1777804541 | 3.33° C | 72% | 1009.2 hPa | 0 mm | - | 24 W/m² | - |
| 1777804238 | 3.89° C | 72% | 1009.2 hPa | 0 mm | - | 22 W/m² | - |
| 1777803936 | 3.89° C | 71% | 1009.3 hPa | 0 mm | - | 21 W/m² | - |
| 1777803632 | 3.89° C | 71% | 1009 hPa | 0 mm | - | 18 W/m² | - |
* Rain latest hour (hover to see other rain measurements)
** Current wind speed in m/s (hover to see current wind gust speed)